QPF
0.00 0.00 0.00 0.00 0.00 0.00 0.00 0.00 0.00 0.00 0.00 0.00 0.00 0.00 0.00 0.00 0.00 0.00 0.00 0.00 0.00 0.00 0.00 0.00 0.00 0.00 0.00 0.00 0.00 0.00 0.00 0.00 0.00 0.00 0.00 0.00 0.00 0.00 0.01 0.02 0.02 0.03 0.03
0.00 0.00 0.00 0.00 0.00 0.00 0.00 0.00 0.00 0.00 0.00 0.00 0.00 0.00 0.00 0.00 0.00 0.00 0.00 0.00 0.00 0.00 0.00 0.00 0.00 0.00 0.00 0.00 0.00 0.00 0.00 0.00 0.00 0.00 0.00 0.00 0.00 0.00 0.00 0.00 0.01 0.02 0.03
0.00 0.00 0.00 0.00 0.00 0.00 0.00 0.00 0.00 0.00 0.00 0.00 0.00 0.00 0.00 0.00 0.00 0.00 0.00 0.00 0.00 0.00 0.00 0.00 0.00 0.00 0.00 0.00 0.00 0.00 0.00 0.00 0.00 0.00 0.00 0.00 0.00 0.00 0.00 0.00 0.00 0.00 0.02
0.00 0.00 0.00 0.00 0.00 0.00 0.00 0.00 0.00 0.00 0.00 0.00 0.00 0.00 0.00 0.00 0.00 0.00 0.00 0.00 0.00 0.00 0.00 0.00 0.00 0.00 0.00 0.00 0.00 0.00 0.00 0.00 0.00 0.00 0.00 0.00 0.00 0.00 0.00 0.00 0.00 0.00 0.01
0.00 0.00 0.00 0.00 0.00 0.00 0.00 0.00 0.00 0.00 0.00 0.00 0.00 0.00 0.00 0.00 0.00 0.00 0.00 0.00 0.00 0.00 0.00 0.00 0.00 0.00 0.00 0.00 0.00 0.00 0.00 0.00 0.00 0.00 0.00 0.00 0.00 0.00 0.00 0.00 0.00 0.00 0.01
0.00 0.00 0.00 0.00 0.00 0.00 0.00 0.00 0.00 0.00 0.00 0.00 0.00 0.00 0.00 0.00 0.00 0.00 0.00 0.00 0.00 0.00 0.00 0.00 0.00 0.00 0.00 0.00 0.00 0.00 0.00 0.00 0.00 0.00 0.00 0.00 0.00 0.00 0.00 0.00 0.00 0.00 0.00
0.00 0.00 0.00 0.00 0.00 0.00 0.00 0.00 0.00 0.00 0.00 0.00 0.00 0.00 0.00 0.00 0.00 0.00 0.00 0.00 0.00 0.00 0.00 0.00 0.00 0.00 0.00 0.00 0.00 0.00 0.00 0.00 0.00 0.00 0.00 0.00 0.00 0.00 0.00 0.00 0.00 0.00 0.00
0.00 0.00 0.00 0.00 0.00 0.00 0.00 0.00 0.00 0.00 0.00 0.00 0.00 0.00 0.00 0.00 0.00 0.00 0.00 0.00 0.00 0.00 0.00 0.00 0.00 0.00 0.00 0.00 0.00 0.00 0.00 0.00 0.00 0.00 0.00 0.00 0.00 0.00 0.00 0.00 0.00 0.00 0.00
0.00 0.00 0.00 0.00 0.00 0.00 0.00 0.00 0.00 0.00 0.00 0.00 0.00 0.00 0.00 0.00 0.00 0.00 0.00 0.00 0.00 0.00 0.00 0.00 0.00 0.00 0.00 0.00 0.00 0.00 0.00 0.00 0.00 0.00 0.00 0.00 0.00 0.00 0.00 0.00 0.00 0.00 0.00
0.01 0.01 0.01 0.00 0.00 0.00 0.00 0.00 0.00 0.00 0.00 0.00 0.00 0.00 0.00 0.00 0.00 0.00 0.00 0.00 0.00 0.00 0.00 0.00 0.00 0.00 0.00 0.00 0.00 0.00 0.00 0.00 0.00 0.00 0.00 0.00 0.00 0.00 0.00 0.00 0.00 0.00 0.00
0.01 0.01 0.01 0.01 0.02 0.02 0.02 0.01 0.01 0.01 0.00 0.00 0.00 0.00 0.00 0.00 0.00 0.00 0.00 0.00 0.00 0.00 0.00 0.00 0.00 0.00 0.00 0.00 0.00 0.00 0.00 0.00 0.00 0.00 0.00 0.00 0.00 0.00 0.00 0.00 0.00 0.00 0.00
0.03 0.04 0.04 0.05 0.04 0.04 0.03 0.02 0.01 0.01 0.01 0.00 0.01 0.00 0.00 0.00 0.00 0.00 0.00 0.00 0.00 0.00 0.00 0.00 0.00 0.00 0.00 0.00 0.00 0.00 0.00 0.00 0.00 0.00 0.00 0.00 0.00 0.00 0.00 0.00 0.00 0.00 0.00
0.07 0.07 0.06 0.05 0.05 0.04 0.03 0.02 0.02 0.01 0.01 0.01 0.01 0.01 0.01 0.01 0.00 0.00 0.00 0.00 0.00 0.00 0.00 0.00 0.00 0.00 0.00 0.00 0.00 0.00 0.00 0.00 0.00 0.00 0.00 0.00 0.00 0.00 0.00 0.00 0.00 0.00 0.00
0.06 0.06 0.05 0.04 0.03 0.04 0.03 0.03 0.03 0.02 0.02 0.02 0.02 0.02 0.01 0.01 0.01 0.01 0.01 0.00 0.00 0.00 0.00 0.00 0.00 0.00 0.00 0.00 0.00 0.00 0.00 0.00 0.00 0.00 0.00 0.00 0.00 0.00 0.00 0.00 0.00 0.00 0.00
0.05 0.05 0.05 0.05 0.05 0.05 0.04 0.03 0.04 0.03 0.04 0.04 0.03 0.03 0.02 0.02 0.02 0.02 0.02 0.01 0.01 0.00 0.00 0.00 0.00 0.00 0.00 0.00 0.00 0.00 0.00 0.00 0.00 0.01 0.00 0.00 0.00 0.00 0.00 0.00 0.00 0.01 0.00
0.05 0.06 0.06 0.06 0.06 0.05 0.04 0.03 0.04 0.04 0.04 0.05 0.05 0.05 0.05 0.05 0.05 0.04 0.02 0.02 0.01 0.00 0.00 0.00 0.00 0.00 0.00 0.00 0.00 0.00 0.01 0.01 0.01 0.01 0.01 0.00 0.00 0.00 0.00 0.00 0.00 0.00 0.00
0.03 0.03 0.04 0.03 0.03 0.03 0.03 0.03 0.03 0.03 0.04 0.05 0.06 0.06 0.06 0.07 0.07 0.06 0.05 0.04 0.02 0.01 0.00 0.00 0.00 0.00 0.00 0.00 0.00 0.00 0.01 0.01 0.02 0.02 0.01 0.01 0.01 0.00 0.00 0.00 0.00 0.01 0.01
0.01 0.01 0.01 0.01 0.01 0.02 0.02 0.02 0.03 0.04 0.05 0.05 0.05 0.06 0.07 0.06 0.06 0.06 0.05 0.03 0.02 0.01 0.00 0.00 0.00 0.00 0.00 0.00 0.01 0.01 0.01 0.01 0.02 0.02 0.02 0.02 0.02 0.01 0.01 0.00 0.00 0.01 0.01
0.00 0.00 0.01 0.01 0.01 0.01 0.01 0.02 0.03 0.04 0.05 0.05 0.05 0.06 0.06 0.06 0.06 0.06 0.04 0.03 0.02 0.01 0.01 0.01 0.01 0.01 0.01 0.01 0.01 0.01 0.01 0.01 0.01 0.02 0.02 0.01 0.01 0.01 0.01 0.01 0.01 0.01 0.01
0.00 0.00 0.00 0.01 0.01 0.01 0.02 0.03 0.04 0.05 0.05 0.06 0.07 0.08 0.09 0.08 0.07 0.07 0.07 0.05 0.03 0.03 0.03 0.04 0.04 0.04 0.04 0.03 0.03 0.03 0.03 0.02 0.02 0.02 0.01 0.01 0.01 0.01 0.01 0.01 0.01 0.01 0.01
0.00 0.00 0.01 0.01 0.01 0.02 0.03 0.03 0.04 0.06 0.07 0.08 0.08 0.08 0.09 0.09 0.08 0.08 0.07 0.06 0.05 0.05 0.05 0.06 0.05 0.04 0.04 0.04 0.04 0.04 0.04 0.04 0.04 0.03 0.03 0.03 0.03 0.03 0.02 0.02 0.02 0.01 0.01
0.00 0.00 0.00 0.01 0.01 0.02 0.03 0.04 0.05 0.06 0.07 0.08 0.08 0.08 0.09 0.08 0.07 0.06 0.06 0.06 0.06 0.05 0.05 0.04 0.03 0.03 0.03 0.03 0.03 0.03 0.03 0.04 0.04 0.03 0.03 0.04 0.04 0.04 0.04 0.03 0.03 0.03 0.03
0.00 0.00 0.00 0.01 0.01 0.02 0.03 0.04 0.05 0.06 0.08 0.10 0.10 0.10 0.10 0.08 0.07 0.06 0.05 0.05 0.04 0.04 0.03 0.03 0.02 0.02 0.02 0.02 0.02 0.03 0.04 0.03 0.03 0.03 0.04 0.04 0.04 0.04 0.04 0.03 0.03 0.04 0.04
0.00 0.00 0.00 0.01 0.02 0.03 0.03 0.05 0.06 0.09 0.11 0.13 0.14 0.12 0.09 0.07 0.06 0.05 0.05 0.04 0.03 0.03 0.03 0.02 0.02 0.02 0.02 0.02 0.02 0.03 0.03 0.04 0.03 0.03 0.03 0.03 0.04 0.04 0.05 0.05 0.05 0.05 0.05
0.00 0.00 0.01 0.02 0.03 0.04 0.05 0.07 0.09 0.12 0.16 0.18 0.17 0.13 0.09 0.06 0.05 0.05 0.04 0.03 0.03 0.03 0.02 0.02 0.03 0.03 0.02 0.01 0.02 0.02 0.04 0.04 0.03 0.02 0.02 0.02 0.03 0.04 0.05 0.07 0.07 0.07 0.07
0.01 0.01 0.01 0.02 0.02 0.03 0.04 0.08 0.12 0.15 0.18 0.16 0.14 0.11 0.07 0.05 0.05 0.04 0.04 0.04 0.04 0.03 0.02 0.03 0.04 0.03 0.01 0.01 0.02 0.03 0.02 0.02 0.02 0.02 0.02 0.02 0.03 0.04 0.06 0.08 0.12 0.11 0.09
MSLP
1013.62 1014.12 1014.63 1015.09 1015.46 1015.73 1015.89 1015.98 1016.05 1016.12 1016.22 1016.37 1016.56 1016.75 1016.93 1017.06 1017.14 1017.15 1017.12 1017.08 1017.04 1017.04 1017.09 1017.19 1017.33 1017.48 1017.63 1017.73 1017.78 1017.76 1017.68 1017.54 1017.34 1017.10 1016.82 1016.52 1016.18 1015.81 1015.43 1015.05 1014.68 1014.35 1014.09
1013.53 1013.97 1014.42 1014.82 1015.14 1015.36 1015.49 1015.57 1015.61 1015.66 1015.75 1015.88 1016.04 1016.22 1016.39 1016.53 1016.62 1016.66 1016.66 1016.65 1016.64 1016.65 1016.69 1016.77 1016.88 1017.00 1017.12 1017.20 1017.25 1017.25 1017.21 1017.13 1017.02 1016.87 1016.69 1016.47 1016.21 1015.90 1015.56 1015.19 1014.81 1014.45 1014.15
1013.35 1013.76 1014.16 1014.51 1014.79 1014.98 1015.09 1015.14 1015.17 1015.21 1015.28 1015.39 1015.53 1015.69 1015.85 1015.99 1016.10 1016.17 1016.21 1016.23 1016.25 1016.28 1016.34 1016.41 1016.49 1016.58 1016.65 1016.70 1016.73 1016.72 1016.70 1016.65 1016.60 1016.52 1016.42 1016.29 1016.12 1015.89 1015.60 1015.27 1014.92 1014.57 1014.25
1012.98 1013.38 1013.76 1014.09 1014.35 1014.53 1014.64 1014.70 1014.73 1014.77 1014.84 1014.93 1015.06 1015.20 1015.35 1015.49 1015.60 1015.69 1015.76 1015.82 1015.87 1015.93 1016.00 1016.07 1016.14 1016.19 1016.22 1016.23 1016.22 1016.18 1016.14 1016.11 1016.08 1016.05 1016.02 1015.97 1015.88 1015.74 1015.54 1015.27 1014.96 1014.63 1014.31
1012.36 1012.76 1013.15 1013.50 1013.77 1013.98 1014.12 1014.21 1014.28 1014.34 1014.41 1014.51 1014.63 1014.75 1014.88 1015.01 1015.12 1015.22 1015.31 1015.39 1015.48 1015.57 1015.65 1015.73 1015.78 1015.81 1015.80 1015.76 1015.70 1015.62 1015.55 1015.50 1015.48 1015.48 1015.50 1015.52 1015.51 1015.45 1015.34 1015.15 1014.91 1014.62 1014.31
1011.51 1011.93 1012.35 1012.73 1013.05 1013.31 1013.51 1013.66 1013.79 1013.89 1013.99 1014.10 1014.22 1014.33 1014.44 1014.55 1014.64 1014.74 1014.83 1014.93 1015.03 1015.14 1015.24 1015.32 1015.37 1015.38 1015.34 1015.27 1015.16 1015.04 1014.93 1014.85 1014.82 1014.83 1014.88 1014.95 1015.01 1015.04 1015.01 1014.91 1014.73 1014.49 1014.21
1010.51 1010.97 1011.42 1011.85 1012.23 1012.56 1012.83 1013.06 1013.25 1013.41 1013.56 1013.68 1013.79 1013.89 1013.98 1014.05 1014.12 1014.19 1014.27 1014.37 1014.48 1014.60 1014.71 1014.80 1014.86 1014.86 1014.81 1014.71 1014.57 1014.41 1014.27 1014.17 1014.12 1014.13 1014.20 1014.31 1014.43 1014.52 1014.57 1014.55 1014.45 1014.27 1014.02
1009.54 1010.00 1010.48 1010.95 1011.38 1011.78 1012.13 1012.43 1012.68 1012.90 1013.07 1013.21 1013.32 1013.40 1013.45 1013.49 1013.52 1013.56 1013.62 1013.70 1013.81 1013.93 1014.05 1014.16 1014.22 1014.24 1014.19 1014.08 1013.92 1013.75 1013.59 1013.47 1013.41 1013.42 1013.51 1013.64 1013.80 1013.95 1014.07 1014.11 1014.07 1013.94 1013.73
1008.77 1009.21 1009.69 1010.17 1010.64 1011.07 1011.46 1011.81 1012.10 1012.35 1012.54 1012.68 1012.77 1012.81 1012.83 1012.82 1012.81 1012.81 1012.84 1012.91 1013.01 1013.14 1013.27 1013.39 1013.48 1013.51 1013.48 1013.39 1013.25 1013.08 1012.92 1012.80 1012.74 1012.75 1012.84 1012.99 1013.17 1013.36 1013.51 1013.61 1013.62 1013.54 1013.37
1008.34 1008.73 1009.17 1009.63 1010.09 1010.52 1010.91 1011.26 1011.55 1011.79 1011.96 1012.07 1012.13 1012.13 1012.10 1012.05 1012.00 1011.97 1011.98 1012.03 1012.13 1012.26 1012.41 1012.56 1012.67 1012.73 1012.73 1012.67 1012.55 1012.41 1012.28 1012.17 1012.11 1012.13 1012.22 1012.37 1012.56 1012.76 1012.93 1013.05 1013.10 1013.06 1012.92
1008.31 1008.64 1009.01 1009.41 1009.81 1010.18 1010.53 1010.82 1011.06 1011.24 1011.36 1011.41 1011.41 1011.36 1011.28 1011.19 1011.11 1011.06 1011.06 1011.11 1011.22 1011.36 1011.53 1011.70 1011.84 1011.93 1011.97 1011.95 1011.87 1011.77 1011.66 1011.57 1011.53 1011.55 1011.63 1011.77 1011.95 1012.14 1012.32 1012.45 1012.51 1012.49 1012.39
1008.68 1008.92 1009.20 1009.50 1009.80 1010.08 1010.32 1010.51 1010.64 1010.72 1010.74 1010.71 1010.63 1010.52 1010.39 1010.27 1010.18 1010.13 1010.13 1010.20 1010.32 1010.49 1010.68 1010.87 1011.04 1011.16 1011.23 1011.25 1011.21 1011.14 1011.06 1010.99 1010.96 1010.98 1011.05 1011.17 1011.33 1011.50 1011.65 1011.77 1011.83 1011.83 1011.76
1009.33 1009.48 1009.65 1009.84 1010.01 1010.15 1010.25 1010.30 1010.29 1010.23 1010.12 1009.98 1009.81 1009.63 1009.46 1009.33 1009.23 1009.20 1009.23 1009.33 1009.48 1009.68 1009.89 1010.11 1010.29 1010.44 1010.53 1010.56 1010.55 1010.50 1010.44 1010.39 1010.37 1010.38 1010.43 1010.53 1010.65 1010.78 1010.91 1011.00 1011.05 1011.06 1011.01
1010.12 1010.17 1010.24 1010.31 1010.34 1010.33 1010.27 1010.15 1009.97 1009.75 1009.50 1009.23 1008.96 1008.72 1008.52 1008.38 1008.30 1008.30 1008.38 1008.52 1008.72 1008.94 1009.18 1009.41 1009.60 1009.75 1009.84 1009.87 1009.86 1009.82 1009.77 1009.72 1009.69 1009.69 1009.73 1009.80 1009.89 1009.98 1010.07 1010.14 1010.18 1010.19 1010.16
1010.85 1010.84 1010.82 1010.77 1010.68 1010.51 1010.29 1009.99 1009.64 1009.25 1008.85 1008.46 1008.10 1007.79 1007.57 1007.43 1007.39 1007.44 1007.57 1007.77 1008.01 1008.27 1008.52 1008.75 1008.93 1009.06 1009.13 1009.14 1009.11 1009.06 1009.00 1008.94 1008.90 1008.89 1008.91 1008.95 1009.01 1009.08 1009.14 1009.19 1009.22 1009.23 1009.22
1011.38 1011.32 1011.24 1011.11 1010.90 1010.61 1010.23 1009.78 1009.27 1008.73 1008.18 1007.67 1007.22 1006.87 1006.63 1006.50 1006.50 1006.60 1006.78 1007.04 1007.32 1007.60 1007.86 1008.08 1008.23 1008.32 1008.35 1008.33 1008.26 1008.18 1008.10 1008.02 1007.98 1007.95 1007.96 1007.99 1008.04 1008.09 1008.14 1008.18 1008.21 1008.23 1008.24
1011.63 1011.55 1011.43 1011.24 1010.96 1010.57 1010.08 1009.49 1008.85 1008.17 1007.50 1006.89 1006.37 1005.97 1005.71 1005.59 1005.62 1005.77 1006.00 1006.30 1006.61 1006.91 1007.16 1007.35 1007.47 1007.51 1007.48 1007.40 1007.29 1007.18 1007.06 1006.98 1006.92 1006.90 1006.91 1006.94 1006.99 1007.05 1007.11 1007.16 1007.20 1007.23 1007.27
1011.60 1011.53 1011.40 1011.18 1010.85 1010.40 1009.82 1009.14 1008.38 1007.60 1006.84 1006.14 1005.55 1005.11 1004.84 1004.73 1004.78 1004.95 1005.22 1005.54 1005.87 1006.16 1006.40 1006.55 1006.62 1006.60 1006.51 1006.38 1006.22 1006.06 1005.93 1005.83 1005.77 1005.76 1005.78 1005.84 1005.91 1005.99 1006.07 1006.15 1006.21 1006.27 1006.33
1011.37 1011.31 1011.19 1010.97 1010.62 1010.13 1009.50 1008.76 1007.93 1007.07 1006.24 1005.47 1004.84 1004.36 1004.06 1003.95 1003.99 1004.18 1004.45 1004.78 1005.09 1005.37 1005.57 1005.68 1005.69 1005.61 1005.47 1005.28 1005.07 1004.88 1004.73 1004.62 1004.58 1004.58 1004.64 1004.73 1004.84 1004.95 1005.07 1005.18 1005.27 1005.36 1005.45
1011.03 1011.00 1010.90 1010.69 1010.34 1009.84 1009.19 1008.41 1007.55 1006.64 1005.76 1004.95 1004.27 1003.76 1003.44 1003.30 1003.32 1003.49 1003.74 1004.04 1004.33 1004.56 1004.71 1004.77 1004.72 1004.59 1004.39 1004.15 1003.91 1003.70 1003.53 1003.43 1003.40 1003.43 1003.51 1003.64 1003.79 1003.95 1004.10 1004.24 1004.37 1004.49 1004.60
1010.72 1010.71 1010.62 1010.43 1010.09 1009.59 1008.94 1008.16 1007.28 1006.36 1005.45 1004.62 1003.91 1003.37 1003.01 1002.83 1002.82 1002.94 1003.15 1003.39 1003.62 1003.80 1003.89 1003.88 1003.77 1003.58 1003.33 1003.06 1002.79 1002.56 1002.39 1002.29 1002.28 1002.33 1002.44 1002.60 1002.78 1002.96 1003.14 1003.31 1003.46 1003.60 1003.73
1010.52 1010.50 1010.42 1010.24 1009.91 1009.43 1008.79 1008.03 1007.16 1006.25 1005.34 1004.50 1003.78 1003.21 1002.81 1002.59 1002.52 1002.58 1002.71 1002.88 1003.03 1003.13 1003.14 1003.07 1002.90 1002.66 1002.37 1002.06 1001.77 1001.53 1001.36 1001.26 1001.25 1001.32 1001.44 1001.61 1001.80 1002.00 1002.19 1002.36 1002.52 1002.67 1002.81
1010.47 1010.44 1010.34 1010.15 1009.83 1009.36 1008.75 1008.01 1007.18 1006.30 1005.42 1004.60 1003.88 1003.29 1002.86 1002.58 1002.45 1002.42 1002.47 1002.54 1002.60 1002.61 1002.54 1002.39 1002.16 1001.87 1001.54 1001.21 1000.90 1000.65 1000.47 1000.37 1000.35 1000.41 1000.53 1000.68 1000.86 1001.04 1001.22 1001.38 1001.52 1001.65 1001.79
1010.57 1010.49 1010.36 1010.14 1009.81 1009.36 1008.77 1008.08 1007.30 1006.47 1005.63 1004.85 1004.14 1003.55 1003.10 1002.77 1002.57 1002.46 1002.41 1002.38 1002.34 1002.25 1002.09 1001.87 1001.58 1001.24 1000.88 1000.52 1000.20 999.93 999.73 999.62 999.58 999.62 999.70 999.82 999.96 1000.10 1000.23 1000.34 1000.45 1000.55 1000.66
1010.76 1010.61 1010.42 1010.17 1009.82 1009.37 1008.82 1008.17 1007.44 1006.68 1005.91 1005.17 1004.51 1003.93 1003.46 1003.10 1002.84 1002.65 1002.50 1002.37 1002.22 1002.04 1001.79 1001.50 1001.15 1000.77 1000.38 1000.00 999.66 999.38 999.16 999.02 998.95 998.95 998.98 999.04 999.12 999.19 999.25 999.30 999.35 999.40 999.48
1010.99 1010.75 1010.49 1010.18 1009.80 1009.35 1008.82 1008.22 1007.57 1006.88 1006.18 1005.51 1004.89 1004.34 1003.88 1003.49 1003.17 1002.91 1002.68 1002.45 1002.21 1001.94 1001.62 1001.26 1000.86 1000.44 1000.03 999.63 999.28 998.98 998.75 998.58 998.47 998.41 998.38 998.37 998.36 998.35 998.32 998.30 998.27 998.27 998.29
Thickness
5733 5729 5726 5721 5718 5713 5709 5705 5701 5697 5694 5690 5686 5682 5679 5675 5672 5667 5663 5659 5655 5651 5648 5644 5641 5639 5635 5632 5629 5626 5624 5622 5621 5624 5627 5633 5638 5642 5647 5651 5655 5659 5663
5734 5729 5725 5721 5716 5711 5707 5703 5700 5695 5692 5688 5684 5680 5676 5672 5668 5664 5660 5656 5651 5647 5643 5639 5635 5633 5628 5625 5622 5619 5616 5614 5613 5615 5617 5620 5625 5629 5634 5639 5645 5650 5654
5733 5728 5723 5718 5714 5709 5706 5702 5698 5693 5689 5685 5681 5677 5673 5669 5665 5661 5657 5652 5647 5643 5639 5634 5630 5626 5621 5618 5615 5612 5609 5609 5607 5606 5607 5609 5612 5617 5622 5627 5634 5639 5645
5732 5726 5721 5717 5713 5709 5705 5700 5695 5691 5686 5682 5678 5674 5670 5666 5662 5657 5653 5648 5643 5638 5634 5630 5625 5620 5616 5612 5608 5605 5603 5600 5598 5597 5598 5598 5601 5605 5608 5612 5618 5625 5631
5731 5725 5721 5717 5712 5707 5702 5698 5693 5688 5684 5679 5675 5671 5667 5663 5658 5653 5648 5643 5638 5633 5628 5624 5620 5615 5612 5608 5604 5600 5597 5594 5591 5589 5588 5589 5590 5592 5595 5600 5604 5609 5618
5730 5725 5721 5715 5709 5704 5700 5695 5690 5685 5681 5676 5671 5667 5662 5659 5656 5650 5644 5638 5632 5626 5621 5617 5613 5609 5606 5603 5600 5597 5593 5589 5585 5582 5581 5581 5582 5583 5586 5589 5592 5596 5602
5728 5724 5719 5713 5707 5702 5698 5692 5686 5681 5676 5671 5667 5662 5658 5654 5650 5645 5640 5633 5626 5620 5615 5610 5607 5604 5600 5596 5593 5591 5589 5587 5584 5580 5578 5577 5577 5578 5578 5580 5582 5585 5591
5724 5719 5715 5709 5704 5699 5693 5687 5682 5677 5671 5666 5662 5657 5653 5649 5644 5639 5634 5627 5620 5615 5610 5605 5600 5596 5593 5590 5586 5584 5582 5580 5579 5578 5577 5577 5576 5575 5574 5575 5575 5579 5583
5719 5715 5711 5706 5700 5694 5688 5683 5678 5672 5667 5662 5657 5652 5647 5643 5639 5634 5628 5620 5614 5609 5605 5600 5595 5591 5588 5584 5580 5577 5575 5574 5575 5574 5574 5573 5572 5571 5569 5567 5567 5567 5572
5715 5712 5708 5702 5696 5689 5684 5679 5673 5667 5662 5657 5652 5647 5642 5638 5634 5628 5622 5614 5608 5603 5598 5594 5591 5586 5583 5579 5574 5571 5568 5569 5568 5568 5567 5566 5566 5565 5564 5563 5563 5562 5564
5708 5704 5698 5693 5687 5682 5676 5671 5666 5660 5655 5650 5645 5641 5636 5632 5628 5623 5616 5608 5603 5598 5593 5588 5585 5581 5577 5574 5570 5566 5565 5564 5561 5559 5558 5558 5558 5558 5558 5559 5559 5559 5561
5694 5689 5685 5681 5677 5672 5666 5661 5656 5651 5645 5641 5636 5633 5630 5626 5622 5618 5612 5605 5599 5593 5589 5585 5580 5576 5572 5568 5565 5562 5559 5556 5553 5550 5549 5549 5550 5551 5553 5554 5555 5557 5560
5676 5672 5669 5666 5662 5658 5654 5649 5645 5640 5635 5632 5627 5625 5623 5619 5615 5611 5606 5600 5594 5588 5584 5580 5574 5569 5565 5561 5559 5556 5552 5548 5545 5543 5544 5546 5547 5547 5547 5547 5549 5551 5554
5658 5654 5652 5649 5645 5642 5639 5636 5632 5628 5624 5621 5618 5616 5614 5611 5607 5604 5599 5594 5588 5581 5577 5572 5567 5562 5558 5555 5553 5550 5547 5544 5541 5541 5541 5542 5542 5540 5540 5541 5541 5543 5545
5641 5637 5635 5632 5629 5627 5625 5623 5620 5619 5615 5613 5611 5608 5605 5603 5602 5597 5591 5586 5581 5576 5569 5562 5557 5553 5550 5548 5547 5545 5543 5541 5538 5538 5537 5537 5536 5536 5536 5536 5535 5536 5537
5624 5621 5618 5616 5613 5611 5610 5611 5610 5607 5607 5603 5601 5598 5598 5596 5594 5589 5583 5578 5574 5567 5558 5554 5551 5548 5546 5545 5544 5542 5541 5539 5538 5536 5535 5534 5534 5533 5533 5533 5531 5531 5533
5606 5603 5601 5598 5596 5593 5592 5591 5593 5596 5594 5592 5590 5587 5584 5583 5581 5577 5572 5567 5561 5555 5549 5548 5546 5545 5543 5542 5541 5540 5539 5539 5537 5535 5534 5533 5532 5532 5531 5530 5529 5528 5530
5589 5586 5583 5579 5576 5574 5573 5572 5572 5574 5576 5578 5579 5576 5573 5571 5569 5565 5559 5553 5547 5543 5542 5543 5542 5541 5540 5539 5538 5538 5537 5537 5535 5534 5533 5532 5531 5530 5529 5528 5528 5528 5529
5570 5567 5564 5561 5558 5555 5553 5552 5552 5553 5555 5558 5561 5562 5561 5560 5557 5553 5548 5544 5544 5541 5539 5538 5538 5538 5538 5537 5537 5536 5535 5535 5534 5532 5531 5531 5530 5529 5528 5528 5528 5527 5526
5551 5549 5546 5542 5538 5535 5533 5532 5532 5533 5536 5539 5542 5544 5545 5544 5545 5544 5540 5537 5537 5536 5537 5537 5537 5537 5536 5535 5534 5533 5533 5533 5532 5531 5531 5530 5529 5529 5529 5528 5527 5526 5526
5531 5527 5526 5521 5516 5513 5511 5510 5511 5513 5516 5520 5524 5528 5528 5530 5533 5535 5534 5533 5531 5532 5533 5534 5534 5534 5533 5532 5531 5531 5531 5531 5531 5530 5530 5529 5529 5528 5528 5527 5527 5526 5525
5512 5507 5503 5499 5495 5492 5491 5490 5491 5493 5497 5502 5509 5513 5516 5518 5521 5524 5526 5527 5528 5528 5529 5530 5530 5530 5529 5529 5528 5527 5527 5528 5528 5528 5528 5527 5527 5527 5526 5525 5525 5524 5524
5494 5490 5486 5481 5477 5475 5473 5472 5473 5476 5482 5487 5494 5500 5504 5507 5511 5513 5515 5518 5519 5521 5522 5523 5523 5524 5525 5525 5524 5524 5524 5525 5525 5525 5524 5525 5525 5524 5524 5523 5523 5523 5522
5479 5474 5470 5466 5462 5459 5457 5457 5458 5462 5467 5473 5480 5486 5491 5495 5499 5502 5505 5508 5510 5513 5515 5516 5517 5518 5519 5520 5520 5521 5521 5521 5521 5521 5521 5521 5521 5521 5521 5521 5521 5521 5521
5464 5460 5455 5451 5448 5445 5444 5445 5446 5450 5455 5461 5467 5473 5478 5483 5487 5492 5496 5499 5502 5505 5508 5510 5511 5513 5514 5515 5516 5516 5516 5515 5515 5515 5516 5517 5517 5518 5518 5518 5519 5519 5519
5451 5446 5441 5438 5435 5434 5433 5434 5436 5440 5445 5451 5456 5461 5467 5473 5478 5483 5488 5492 5495 5499 5501 5503 5505 5507 5509 5510 5511 5511 5511 5510 5509 5509 5509 5511 5512 5514 5515 5516 5518 5518 5518